User: anonymous   Login
Location: Unspecified
(0.0000°N, 0.0000°E)
Time: 14:18:41
(UTC+00:00)
Language:

AEHF 1 (USA 214) - Orbit

View from above orbital plane
View from above orbital plane
View from above satellite
View from above satellite

Ground track
Ground track

The orbit data is extracted from the following two-line orbital elements,

1 36868U 10039A   16223.94571187 0.00000000  00000-0  00000-0 0    03
2 36868   0.7391 232.5800 0004131 208.2516 151.7373  1.00270000    03
Epoch (UTC): 10 August 2016 22:41:49
Eccentricity: 0.0004131
inclination: 0.7391°
perigee height: 35769 km
apogee height: 35804 km
right ascension of ascending node: 232.5800°
argument of perigee: 208.2516°
revolutions per day: 1.00270000
mean anomaly at epoch: 151.7373°
orbit number at epoch: 0

The dashed part of the orbit path shows where the satellite is in the earth's shadow,  

DLR